Back to catalog

THOR ABLESTAR DEB

AliveLEO
NORAD 120·DEBRIS·🇺🇸 United States

Launched Jun 29, 1961 from Cape Canaveral Space Force Station

Loading…

Next Passes (next 24 hours)

TLE

FreshSource: Space-Track

Epoch: Sep 8, 2026, 08:12 UTC

1 00120U 61015E   26251.34206970  .00000488  00000-0  20819-3 0  9996
2 00120  66.7040 214.1896 0116559 302.3912  56.5949 14.29671792360214

Track THOR ABLESTAR DEB in real time with AllMySat

Download on the App Store